Regional Weather Roundup
Issued by NWS Northern Indiana

Home | Current Version | Previous Version | Graphics & Text | Print | Product List | Glossary On
Versions: 1 2 3 4 5 6 7 8 9 10 11 12 13 14 15 16 17 18 19 20 21 22 23 24 25 26 27 28 29 30 31 32 33 34 35 36 37 38 39 40 41 42 43 44 45 46 47 48 49 50
000
ASUS43 KIWX 052100
RWRIWX

KIWX WEATHER ROUNDUP
NATIONAL WEATHER SERVICE NORTHERN INDIANA
400 PM EST THU MAR 05 2015

NOTE: "FAIR" INDICATES FEW OR NO CLOUDS BELOW 12,000 FEET WITH NO
SIGNIFICANT WEATHER AND/OR OBSTRUCTIONS TO VISIBILITY.

* THESE STATIONS ARE NOT UNDER NWS QUALITY CONTROL. THEY ALSO MAY NOT
  REPORT WEATHER SUCH AS PRECIPITATION OR FOG.

INZ001>027-052200-
NORTHERN INDIANA

CITY           SKY/WX    TMP DP  RH WIND       PRES   REMARKS
KNOX*            N/A     19 -11  25 NW10      30.45R WCI   8
SOUTH BEND     MOSUNNY   19   6  57 NW15      30.45R WCI   5
ELKHART*       CLOUDY    19   7  58 NW10G18   30.43R WCI   8
GOSHEN         LGT SNOW  18   9  68 NW15      30.42R WCI   4
MONTICELLO*    PTSUNNY   19   7  59 W10       30.47R WCI   7
ANGOLA*        PTSUNNY   16   0  48 N8        30.39S WCI   5
FORT WAYNE     PTSUNNY   19   5  54 NW10      30.42R WCI   7

$$
INZ028>050-052200-
CENTRAL INDIANA

CITY           SKY/WX    TMP DP  RH WIND       PRES   REMARKS
LAFAYETTE      MOSUNNY   17   5  59 NW8       30.49R WCI   7
KOKOMO*        MOSUNNY   19  10  68 NW8       30.45R WCI   9
MUNCIE*        MOSUNNY   19   6  57 NW12      30.42R WCI   7
INDIANAPOLIS   PTSUNNY   20   5  52 NW10      30.44R WCI   9

$$
MIZ043>046-050>051-056>058-064>065-071>073-077>080-052200-
SOUTHWEST LOWER MICHIGAN

CITY           SKY/WX    TMP DP  RH WIND       PRES   REMARKS
BATTLE CREEK   MOSUNNY   19   2  47 NW9       30.39R WCI   8
BENTON HARBOR  PTSUNNY   16  11  80 NW9       30.46R HAZE    WCI   4
COLDWATER*     CLOUDY    19   3  50 NW10      30.39S WCI   7
HILLSDALE*     PTSUNNY   17   2  52 NW6       30.37R WCI   9
HOLLAND        PTSUNNY   16   6  65 W12       30.45R WCI   3
GRAND RAPIDS   PTSUNNY   17   1  49 NW12      30.41R WCI   4
KALAMAZOO      MOSUNNY   19   1  45 W14       30.40S WCI   6
STURGIS*       CLOUDY    18   3  53 NW9       30.40R WCI   6
THREE RIVERS*  PTSUNNY   19   4  51 NW7       30.42R WCI  10

$$
OHZ001>008-015>018-024>025-052200-
NORTHWEST OHIO

CITY           SKY/WX    TMP DP  RH WIND       PRES   REMARKS
DEFIANCE       CLOUDY    20   4  50 NW10      30.42R WCI   9
FINDLAY        CLOUDY    20   4  50 N10       30.40R WCI   9
TOLEDO EXPRESS MOSUNNY   18   3  52 NW8       30.41R WCI   8
TOLEDO METCALF PTSUNNY   19   2  47 NW10      30.42R WCI   7
LIMA           CLOUDY    18   5  57 NW10      30.39R WCI   6

$$
AND FOR LAKE MICHIGAN COASTAL AND OPEN LAKE BUOY OBSERVATIONS

STATION/POSITION TEMP    WIND        PRES    VSBY  WAVE
                 AIR SEA DIR/SP/G                  HT/PER
                 (F)     (DEG/KT/KT) (MB)    (MI)  (FT/S)
CALUMET HARBOR    18     290/  7/ 10 1030.6R
MICHIGAN CITY     18     290/ 12/ 14   N/A
SAINT JOSEPH      17     300/ 12/ 15 1031.2R

$$
&&



USA.gov is the U.S. government's official web portal to all federal, state and local government web resources and services.